Miscellaneous Local Product
Issued by NWS North Platte, NE

Home | Current Version | Previous Version | Text Only | Print | Product List | Glossary On
Versions: 1 2 3 4 5 6 7 8 9 10 11 12 13 14 15 16 17 18 19 20 21 22 23 24 25 26 27 28 29 30 31 32 33 34 35 36 37 38 39 40 41 42 43 44 45 46 47 48 49 50
000
AXUS43 KLBF 272310
MISLBF


WESTERN AND NORTH CENTRAL NEBRASKA HOURLY WEATHER ROUNDUP
NATIONAL WEATHER SERVICE NORTH PLATTE NE
600 PM CDT FRI MAY 27 2016

NOTE: "FAIR" INDICATES FEW OR NO CLOUDS BELOW 12,000 FEET WITH NO
SIGNIFICANT WEATHER AND/OR OBSTRUCTIONS TO VISIBILITY.

NOTE: STATIONS NOT REPORTING VARIABLES SUCH AS SKY/WEATHER OR
PRESSURE ARE PROVIDED BY RAWS AND APRS NETWORKS AND ARE NOT UNDER
NATIONAL WEATHER SERVICE QUALITY CONTROL.

...OBSERVATIONS IN AND NEAR THE EASTERN PANHANDLE OF NEBRASKA...

CITY           SKY/WX    TMP DP  RH WIND       PRES   REMARKS
PINE RIDGE     CLOUDY    65  44  46 NE3       29.84F
CHADRON        CLOUDY    60  44  55 CALM      29.85S
ALLIANCE       MOSUNNY   61  47  59 NE9       29.84F
SIDNEY         RAIN      53  48  83 N9        29.87F
CRESCENT LAKE    N/A     58  47  66 E7G16       N/A
BIG SPRINGS      N/A     55  52  89 NE5         N/A
$$

...OBSERVATIONS IN NORTHERN NEBRASKA AND FAR SOUTHERN SOUTH DAKOTA...

CITY           SKY/WX    TMP DP  RH WIND       PRES   REMARKS
WINNER         FAIR      70  54  56 N7        29.77F
VALENTINE      SUNNY     68  48  48 N12       29.79F
THEDFORD       MOSUNNY   68  52  56 NE12      29.78S
AINSWORTH      SUNNY     67  51  57 N9        29.77S
O`NEILL        MOSUNNY   67  58  72 NE5       29.74S
ORD            MOSUNNY   73  57  57 N9        29.70F
BROKEN BOW     SUNNY     69  57  65 NE15      29.72F
BUTTE            N/A     67  58  72 NW7         N/A
CHAMBERS         N/A     75  59  58 E3          N/A
EWING            N/A     74  60  61 N5G12       N/A
$$

...OBSERVATIONS IN SOUTHWEST NEBRASKA AND FAR NORTHEAST COLORADO...

CITY           SKY/WX    TMP DP  RH WIND       PRES   REMARKS
WRAY           LGT RAIN  55  50  82 NE21G26   29.80S
HOLYOKE        FAIR      54  50  87 N16       29.81F
IMPERIAL       TSTM      51  47  86 N25       29.80R
OGALLALA       RAIN      53  49  87 W10       29.84R
NORTH PLATTE   PTSUNNY   65  53  65 N13       29.75S
MCCOOK         CLOUDY    62  56  80 E6        29.74R
LEXINGTON      CLOUDY    65  57  76 E6        29.72F
PAXTON           N/A     60  55  85 N12         N/A
STAPLETON        N/A     66  54  65 CALM        N/A
GOTHENBURG       N/A     67  53  61 NE6         N/A
CALLAWAY         N/A     66  58  77 E13         N/A
$$

...OBSERVATIONS IN CENTRAL LINCOLN COUNTY AREA...

CITY           SKY/WX    TMP DP  RH WIND       PRES   REMARKS
N.P. AIRPORT   PTSUNNY   65  53  65 N13       29.75S
N.P. DOWNTOWN    N/A     64  54  71 NE8         N/A
N.P. SOUTHEAST   N/A     65  55  69 MISG        N/A
N.P. HILLCREST   N/A     65  54  68 N16         N/A
$$

...SOME OBSERVATIONS FROM AROUND THE REGION...

CITY           SKY/WX    TMP DP  RH WIND       PRES   REMARKS
DENVER         CLOUDY    57  42  57 NE13      29.89S
LARAMIE        CLOUDY    54  37  52 NE13G23   29.93R
CHEYENNE       CLOUDY    55  41  59 NE12      29.91F
SCOTTSBLUFF    CLOUDY    59  45  59 S6        29.88R
RAPID CITY     PTSUNNY   63  50  62 S14       29.84S
BISMARCK       MOSUNNY   70  46  42 CALM      29.79F
PIERRE         CLOUDY    68  54  60 N5        29.77S
SIOUX FALLS    PTSUNNY   75  60  59 NE8       29.71F
OMAHA          CLOUDY    77  60  55 E9        29.68F
GRAND ISLAND   CLOUDY    65  60  84 N7        29.71F
KANSAS CITY    CLOUDY    69  65  86 E6        29.70F
WICHITA        LGT RAIN  66  62  87 N5        29.65F
OKLAHOMA CITY  CLOUDY    76  65  68 SE10      29.65F
DALLAS         CLOUDY    82  63  52 SE14G20   29.72S
AMARILLO       SUNNY     76  38  25 W12G20    29.77S
DODGE CITY     PTSUNNY   72  45  37 S13       29.63F
HAYS           PTSUNNY   48 N/A N/A N17       29.63F
GOODLAND       PTSUNNY   62  53  72 NE12      29.74R
$$




USA.gov is the U.S. government's official web portal to all federal, state and local government web resources and services.